www.pogodaiklimat.ru

Погода и климат >> Архив погоды >> Россия >> Якутия >> Усть-Мая


АРХИВ ПОГОДЫ в Усть-Мае

Время (UTC), дата Ветер
(напр.,м/с)
 
Видим.   Явления Облачность Т
(С)
Тd
(С)
f
(%)
Тe
(С)
Тes
(С)
Комфортность P
(гПа)
Po
(гПа)
Тmin
(С)
Tmax
(С)
R
(мм)
R24
(мм)
S
(см)
03 10.07 Ю 4 50 км 10/4 1000 м
[Cb cap Ac trans]
+22.6 +14.1 59 +26 +28 жарко 1004.9 985.6
06 10.07 В 1 10 км слаб. ливневой дождь, в посл. час гроза 10/6 800 м
[Cb cap Ac trans]
+17.1 +15.2 89 +18 +20 1005.2 985.5
09 10.07 В 1 50 км {ливн. осадки} 10/4 1000 м
[Cb cap Ac trans Ci fib]
+20.7 +17.6 82 +26 +26 душно 1004.0 984.6 +24.9 8
12 10.07 СЗ 1 50 км {ливн. осадки} 6/4 600 м
[Cb cap Ac trans]
+18.0 +16.7 92 +19 +19 1004.5 984.9
15 10.07 С 1 50 км гроза, ливневой дождь 9/6 750 м
[Cb cap Ac trans]
+17.6 +16.8 95 +19 +19 1004.7 985.1
18 10.07 ЮЗ 1 10 км дым {гроза, ливн. осадки} 9/3 1000 м
[Cb cap Ac trans]
+16.6 +16.5 99 +17 +17 1005.8 986.1
21 10.07 Ю 2 500 м туман ?/? +16.3 +16.2 99 +16 +16 1006.5 986.8 +16.3 9
00 11.07 З 1 4000 м дымка {туман} 8/8 210 м
[St]
+19.5 +18.2 92 +23 +25 комфорт 1006.8 987.3 +16.2
03 11.07 ЮВ 1 50 км гроза без осадков 4/4 600 м
[Cb cap]
+23.8 +19.0 75 +29 +38 душно 1006.2 987.0
06 11.07 В 1 50 км гроза без осадков 8/5 600 м
[Cb cap Ac trans]
+27.3 +16.4 51 +31 +34 душно 1005.2 986.2
09 11.07 СЗ 1 50 км в посл. час гроза 5/3 600 м
[Cb cap Ac trans]
+26.8 +18.9 62 +32 +34 очень
душно
1005.2 986.3 +28.0
12 11.07 СЗ 1 50 км {гроза} 10/4 1000 м
[Cu Sc Cs]
+22.7 +19.4 82 +29 +29 очень
душно
1006.5 987.2
15 11.07 З 1 50 км 3/0
[Ac trans]
+17.4 +15.5 89 +18 +18 1007.1 987.4
18 11.07 штиль 0 50 км 4/0
[Ac trans Ci fib]
+15.1 +13.3 89 +15 +15 1008.2 988.3
21 11.07 ЮЗ 1 20 км дым 3/0
[Ac trans Ci fib]
+17.1 +16.4 96 +18 +20 1008.6 988.8 +14.8
00 12.07 В 1 50 км 6/0
[Ci fib]
+21.8 +18.4 81 +27 +36 душно 1007.9 988.5
03 12.07 ЮВ 2 20 км дым 6/3 1000 м
[Cu med, cong Cs]
+26.4 +19.3 65 +32 +40 очень
душно
1007.0 987.6
06 12.07 Ю 1 50 км 6/4 1000 м
[Cb cap Ci fib]
+28.8 +18.6 54 +34 +40 очень
душно
1004.9 986.0
09 12.07 Ю 1 50 км 4/1 1000 м
[Cu med, cong Ci fib]
+29.3 +16.4 46 +33 +35 душно 1004.1 985.3 +29.8
12 12.07 штиль 0 50 км 3/0
[Ac trans]
+22.8 +19.5 82 +29 +29 очень
душно
1005.0 985.8
15 12.07 штиль 0 50 км 3/0
[Ac trans]
+17.7 +16.0 90 +18 +18 1005.7 986.1
18 12.07 штиль 0 20 км дым 5/0
[Ac trans Ci fib]
+14.1 +12.8 92 +14 +14 1006.5 986.6
21 12.07 штиль 0 20 км дым 5/0
[Ac trans Ci fib]
+17.4 +14.1 81 +17 +20 1006.9 987.2 +13.6
00 13.07 ЮВ 1 20 км дым 5/0
[Ci fib]
+22.4 +16.2 68 +27 +36 душно 1006.4 987.1
03 13.07 В 1 20 км дым 6/3 1000 м
[Cu med, cong Cs]
+28.9 +14.9 43 +31 +42 жарко 1005.2 986.3
06 13.07 В 1 20 км дым 8/4 1000 м
[Cu med, cong Ci fib]
+29.9 +15.2 41 +32 +38 жарко 1004.1 985.3
09 13.07 ЮВ 5 20 км дым 9/4 1000 м
[Cb cap Ci fib]
+27.9 +15.3 46 +31 +31 душно 1004.0 985.1 +29.9
12 13.07 В 1 50 км 10/3 1000 м
[Cb cap Ac trans Ci fib]
+21.2 +16.9 76 +25 +25 комфорт 1004.5 985.2
15 13.07 С 2 50 км 10/3 1000 м
[Cb cap Ac trans Cs]
+19.5 +14.3 72 +22 +22 комфорт 1005.7 986.2
18 13.07 С 2 50 км 8/1 1000 м
[Cb cap Ac trans Ci fib]
+15.8 +12.8 82 +16 +16 1005.6 985.8
21 13.07 В 1 50 км 10/4 1000 м
[Cb cap Ac trans Ci fib]
+18.7 +14.8 78 +21 +21 комфорт 1005.9 986.3 +15.1
00 14.07 ЮВ 2 20 км гроза, ливневой дождь 10/6 630 м
[Cb cap Ac trans Ci fib]
+20.2 +15.5 74 +23 +25 комфорт 1006.6 986.7
03 14.07 С 2 50 км слаб. ливневой дождь, в посл. час гроза 10/5 600 м
[Cb cap Ac trans Ci fib]
+17.6 +16.1 91 +18 +21 1006.1 986.5
06 14.07 ЮВ 2 50 км {гроза, ливн. осадки} 9/4 600 м
[Cb cap Ac trans]
+20.4 +16.2 77 +24 +27 комфорт 1006.1 986.6
09 14.07 С 1 50 км 8/4 1000 м
[Cb cap Ac trans]
+22.4 +17.8 75 +27 +28 душно 1004.8 985.5 +22.4 5
12 14.07 С 1 50 км 9/5 1000 м
[Cb cap Ac trans]
+19.6 +17.9 90 +23 +23 комфорт 1005.2 985.7
15 14.07 Ю 1 20 км гроза, ливневой дождь 10/8 720 м
[Cb cap Ac trans]
+19.1 +16.7 86 +22 +22 комфорт 1006.2 986.6
18 14.07 СВ 1 50 км {гроза, ливн. осадки} 5/4 1000 м
[Sc Ac trans]
+15.8 +15.3 97 +16 +16 1005.5 985.8
21 14.07 СВ 1 50 км 5/4 1000 м
[Cb cap Ac trans]
+18.2 +16.5 90 +20 +21 1006.2 986.6 +14.9 0.5
00 15.07 штиль 0 50 км 4/3 1000 м
[Cb cap Ac trans]
+23.0 +17.4 71 +28 +36 душно 1006.1 986.9
03 15.07 Ю 2 50 км 6/5 1000 м
[Cb cap Ac cuf]
+26.0 +16.4 55 +29 +35 душно 1005.5 986.4
06 15.07 ЮВ 1 50 км 8/4 1000 м
[Cb cap Ci fib]
+27.5 +16.6 51 +31 +37 душно 1004.3 985.3
09 15.07 штиль 0 50 км 8/3 1000 м
[Cb cap Cs]
+27.5 +17.2 53 +31 +33 душно 1003.7 984.7 +28.2
12 15.07 ЮЗ 1 50 км 8/0
[Ac trans Ci fib]
+21.6 +16.2 71 +25 +25 комфорт 1004.9 985.6
15 15.07 штиль 0 50 км 8/0
[Ac trans Ci fib]
+17.5 +15.5 88 +17 +17 1005.2 985.6
18 15.07 З 1 50 км 8/0
[Ac trans Ci fib]
+16.0 +14.4 90 +17 +17 1005.5 985.7
21 15.07 Ю 1 20 км дым 6/0
[Ac cast Ci fib]
+18.3 +16.5 89 +20 +21 1005.8 986.2 +15.2
00 16.07 З 2 50 км 10/3 1000 м
[Cu hum Ci fib]
+24.5 +17.4 65 +29 +34 душно 1005.5 986.3
03 16.07 СЗ 3 50 км 6/4 1000 м
[Cb cap Ci fib]
+26.0 +15.4 52 +29 +35 душно 1004.6 985.5
06 16.07 СЗ 3 50 км 8/4 1000 м
[Cb cap Ci fib]
+27.6 +14.9 46 +30 +34 жарко 1003.3 984.4
09 16.07 СЗ 2 50 км 10/4 1000 м
[Cb cap Cs]
+27.0 +14.7 47 +30 +31 душно 1002.8 983.8 +27.9
12 16.07 СЗ 1 50 км 5/1 1000 м
[Cb cap Ac trans Ci fib]
+22.2 +13.8 59 +25 +25 комфорт 1003.8 984.5
15 16.07 З 1 50 км 6/3 1000 м
[Cb cap Ac trans Ci fib]
+18.5 +14.3 77 +20 +20 1004.2 984.6
18 16.07 СЗ 1 50 км 4/0
[Ac trans Ci fib]
+14.0 +12.6 91 +14 +14 1004.8 984.9
21 16.07 штиль 0 50 км 3/0
[Ac trans Ci fib]
+16.9 +12.7 76 +17 +19 1004.9 985.2 +13.7

 

Местоположение метеостанции Усть-Мая (Якутия, Россия): широта 60.35 долгота 134.40 высота над уровнем моря 170 м.

В архиве по умолчанию представлена погода в Усть-Мае за последнюю неделю. Архивные данные за месяц целиком и за предыдущие месяцы, начиная с января 2011 года, Вы можете получить, выбрав интересующий диапазон дат из раскрывающегося списка и нажав кнопку "Ввод!".


*Определитесь, кто Вы:
робот инопланетянин человек

Внимание! Время в таблицах - всемирное. Для получения местного времени необходимо прибавить поправку, которая равна 9 ч.

Смотрите также архив погоды в соседних городах и на ближайших метеорологических станциях:

Погода в Усть-Миле (Якутия, Россия) (112 км)
Погода в Усть-Юдоме (Якутия, Россия) (136 км)
Погода в Амге (Якутия, Россия) (149 км)
Погода в Охотском Перевозе (Якутия, Россия) (179 км)
Погода в Югоренке (Якутия, Россия) (189 км)
Погода в Чурапче (Якутия, Россия) (210 км)
Погода в Ытык-Кюёле (Якутия, Россия) (230 км)
Погода в Тегюльте (Якутия, Россия) (242 км)
Погода в Крест-Хальджае (Якутия, Россия) (275 км)
Погода в Учуре (Якутия, Россия) (280 км)

Пояснения к столбцам:

Ветер - указаны скорость ветра в м/с - средняя за 10 мин, порывы в срок и между сроками (в фигурных скобках) и направление, откуда дует ветер: С - северный, СВ - северо-восточный, В - восточный, ЮВ - юго-восточный, Ю - южный, ЮЗ - юго-западный, З - западный, СЗ - северо-западный.
Видимость - горизонтальная дальность видимости в метрах или километрах. При видимости от 1 до 10 км при отсутствии осадков обычно наблюдается дымка, при ухудшении видимости до 1 км и менее - туман. В сухую погоду видимость может ухудшаться дымом, пылью или мглою.
Явления - указаны атмосферные явления, наблюдавшиеся в срок или в последний час перед сроком; фигурными скобками обозначены явления, наблюдавшиеся между сроками (за 1-3 часа до срока); квадратными скобками обозначены град или гололедные отложения с указанием их диаметра в мм.
Облачность - указаны через наклонную черту общая и нижняя облачность в баллах и высота нижней границы облаков в метрах; квадратными скобками обозначены формы облаков: Ci - перистые, Cs - перисто-слоистые, Cc - перисто-кучевые, Ac - высококучевые, As - высокослоистые, Sc - слоисто-кучевые, Ns - слоисто-дождевые, Cu - кучевые, Cb - кучево-дождевые. Подробнее классификацию облаков см. в Атласе облаков (PDF).
T - Температура воздуха - температура, измеренная на высоте 2 м над землей.
Td - Температура точки росы - температура, при понижении до которой содержащийся в воздухе водяной пар достигнет насыщения.
f - Относительная влажность воздуха - влажноcть воздуха, измеренная на высоте 2 м над землей.
Te - Эффективная температура - температура, которую ощущает одетый по сезону человек в тени. Характеристика душности погоды. При расчете учитывается влияние влажности воздуха и скорости ветра на теплоощущения человека.
Tes - Эффективная температура на солнце - температура, которую ощущает человек, с поправкой на солнечный нагрев. Характеристика знойности погоды. Зависит от высоты солнца над горизонтом, облачности и скорости ветра. Ночью, в пасмурную погоду, а также при ветре 12 м/с и более поправка равна нулю.
P - Атмосферное давление - приведенное к уровню моря атмосферное давление.
Po - Атмосферное давление - измеренное на уровне метеостанции атмосферное давление.
Tmin - Минимальная температура - минимум температуры воздуха на высоте 2 м над землей.
Tmax - Максимальная температура - максимум температуры воздуха на высоте 2 м над землей.
R - Количество осадков - Количество выпавших осадков за период времени, мм. При наведении курсора мыши на число - период времени, за который выпало указанное количество осадков.
R24 - Количество осадков - Количество выпавших осадков за 24 часа, мм.
S - Снежный покров - Высота снежного покрова, см. При наведении курсора мыши на число - состояние снежного покрова и степень покрытия местности в баллах.